Other Public Products
Issued by NWS Charleston, SC

Current Version | Previous Version | Graphics & Text | Print | Product List | Glossary On
Versions: 1 2 3 4 5 6 7 8 9 10 11 12 13 14 15 16 17 18 19 20 21 22 23 24 25 26 27 28 29 30 31 32 33 34 35 36 37 38 39 40 41 42 43 44 45 46 47 48 49 50
524 FPUS82 KCHS 250812 OPUCHS TEST...KCHS/KSAV Gateway Observations...TEST National Weather Service Charleston SC 400 AM EDT WED APR 25 2018 NOTE: "fair" indicates few or no clouds below 12,000 feet with no significant weather and/or obstructions to visibility. SCZ050-WAZ558-NCZ071-TXZ119-213-PAZ071-DCZ001-FLZ074-172-MI076- NYZ176-178-MAZ016-IL014-TNZ027-NJZ106-GAZ044-MD014-250900- ...Gateway Observations for Charleston International... CITY SKY/WX TMP DP RH WIND PRES REMARKS Chas Airport MOCLDY 62 56 80 SW7 29.80S Seattle PTCLDY 58 36 43 N14 30.07S Charlotte MOCLDY 57 57 100 W6 29.75F Dallas DFW CLOUDY 68 53 58 N10G17 30.03R Dallas Love CLOUDY 69 54 58 N8 30.02R Philladelphia LGT RAIN 55 54 96 E10 29.92F FOG Wash National RAIN 57 54 89 N7 29.84F FOG Baltimore LGT RAIN 55 55 100 N5 29.84F FOG Miami MOCLDY 69 66 90 NW5 29.95S Detroit LGT RAIN 51 48 89 N5 29.91F FOG Newark LGT RAIN 53 53 100 E10 30.01F FOG Laguardia LGT RAIN 51 48 89 NE9 30.03F FOG J F K LGT RAIN 52 52 100 E14 30.04F FOG Boston Logan FAIR 48 40 73 E7 30.17F Ft. Lauderdale MOCLDY 71 65 81 NW9 29.93F Chicago O`Hare CLOUDY 47 29 49 N25G33 30.04R Chicago Midway CLOUDY 46 33 60 N17G29 30.04S Houston Bush FAIR 65 61 87 SW3 30.04F Houston Hobby FAIR 65 63 93 SW5 30.04F Nashville CLOUDY 57 52 83 NW7 29.94S Atlanta FAIR 56 55 97 W8 29.88F $$ GAZ044-118-TXZ119-213-NCZ071-DCZ001-MDZ014-506-PAZ021-071-NJZ106- NYZ176-178-MAZ106-OHZ011-021-055-MIZ076-KYZ091-ILZ014-INZ047- MNZ060-ONZ431-250900- ...Gateway Observations for Savannah International... CITY SKY/WX TMP DP RH WIND PRES REMARKS Savannah Arpt FAIR 61 55 81 W6 29.84F Atlanta FAIR 56 55 97 W8 29.88F Charlotte MOCLDY 57 57 100 W6 29.75F Dallas DFW CLOUDY 68 53 58 N10G17 30.03R Houston Bush FAIR 65 61 87 SW3 30.04F Wash National RAIN 57 54 89 N7 29.84F FOG Wash Dulles MOCLDY 53 53 100 N8 29.84F Baltimore LGT RAIN 55 55 100 N5 29.84F FOG Philadelphia LGT RAIN 55 54 96 E10 29.92F FOG Newark LGT RAIN 53 53 100 E10 30.01F FOG Laguardia LGT RAIN 51 48 89 NE9 30.03F FOG J F K LGT RAIN 52 52 100 E14 30.04F FOG Boston FAIR 48 40 73 E7 30.17F Pittsburg CLOUDY 51 49 92 E3 29.85F Akron CLOUDY 51 48 89 CALM 29.86F FOG Cleveland LGT RAIN 50 49 96 N5 29.90F VSB 1 Cincinnati CLOUDY 53 51 93 N9 29.88F FOG Columbus CLOUDY 51 52 100 CALM 29.86S Detroit LGT RAIN 51 48 89 N5 29.91F FOG Chicago O`Hare CLOUDY 47 29 49 N25G33 30.04R Minneapolis FAIR 41 27 57 N10 30.25R Indianapolis FAIR 49 49 100 NW6 29.92F FOG Toronto Canada LGT RAIN 48 46 93 E12 29.94F $$

USA.gov is the U.S. government's official web portal to all federal, state and local government web resources and services.